This is the latest recevied weather packets stored in our database for station/object W3EJE-13. If no packets are shown the sender has not sent any weather packets the latest 1 day(s).
| Time | Temp. | Humidity | Pressure | Rain* | Wind** | Luminosity | Snow |
|---|---|---|---|---|---|---|---|
| 1778035190 | 13.89° C | 80% | 1011.5 hPa | 0 mm | 0 m/s | 0 W/m² | - |
| 1778034887 | 14.44° C | 80% | 1011.9 hPa | 0 mm | 0 m/s | 0 W/m² | - |
| 1778034584 | 14.44° C | 79% | 1011.2 hPa | 0 mm | 0 m/s | 0 W/m² | - |
| 1778034282 | 14.44° C | 79% | 1011.5 hPa | 0 mm | 0 m/s | 0 W/m² | - |
| 1778033979 | 14.44° C | 78% | 1011.5 hPa | 0 mm | 0 m/s | 0 W/m² | - |
| 1778033676 | 14.44° C | 79% | 1011.5 hPa | 0 mm | 0 m/s | 0 W/m² | - |
| 1778033373 | 14.44° C | 79% | 1011.4 hPa | 0 mm | 0 m/s | 0 W/m² | - |
| 1778033071 | 15° C | 78% | 1011.6 hPa | 0 mm | 0 m/s | 0 W/m² | - |
| 1778032768 | 15° C | 77% | 1011.6 hPa | 0 mm | 0 m/s | 0 W/m² | - |
| 1778032466 | 15° C | 76% | 1011.7 hPa | 0 mm | 0 m/s | 0 W/m² | - |
| 1778032162 | 15.56° C | 74% | 1011.5 hPa | 0 mm | 0 m/s | 0 W/m² | - |
| 1778031859 | 15.56° C | 73% | 1011.3 hPa | 0 mm | 0 m/s | 0 W/m² | - |
| 1778031556 | 15° C | 73% | 1011.6 hPa | 0 mm | 0.45 m/s, 214° | 0 W/m² | - |
| 1778031254 | 15° C | 73% | 1011.7 hPa | 0 mm | 0 m/s | 0 W/m² | - |
| 1778030950 | 15.56° C | 73% | 1011.6 hPa | 0 mm | 0 m/s | 0 W/m² | - |
| 1778030647 | 15.56° C | 72% | 1011.7 hPa | 0 mm | 0 m/s | 0 W/m² | - |
| 1778030343 | 16.11° C | 71% | 1011.5 hPa | 0 mm | 0 m/s | 0 W/m² | - |
| 1778030041 | 16.11° C | 70% | 1011.6 hPa | 0 mm | 0 m/s | 0 W/m² | - |
| 1778029738 | 16.67° C | 69% | 1011.3 hPa | 0 mm | 0 m/s | 0 W/m² | - |
| 1778029436 | 17.22° C | 67% | 1011.2 hPa | 0 mm | 0 m/s | 0 W/m² | - |
| 1778029132 | 17.78° C | 63% | 1011.5 hPa | 0 mm | 0 m/s | 0 W/m² | - |
| 1778028830 | 17.78° C | 62% | 1011.4 hPa | 0 mm | 0 m/s | 0 W/m² | - |
| 1778028525 | 17.78° C | 62% | 1011.5 hPa | 0 mm | 0 m/s | 0 W/m² | - |
| 1778028223 | 17.78° C | 61% | 1011.5 hPa | 0 mm | 0 m/s | 0 W/m² | - |
| 1778027919 | 17.78° C | 61% | 1011.5 hPa | 0 mm | 0 m/s | 0 W/m² | - |
* Rain latest hour (hover to see other rain measurements)
** Current wind speed in m/s (hover to see current wind gust speed)